Regional Weather Roundup
Issued by NWS

Home | Current Version | Previous Version | Text Only | Print | Product List | Glossary Off
Versions: 1 2 3 4 5 6 7 8 9 10 11 12 13 14 15 16 17 18 19 20 21 22 23 24 25 26 27 28 29 30 31 32 33 34 35 36 37 38 39 40 41 42 43 44 45 46 47 48 49 50

674
ASUS44 KLIX 190610
RWRLA
LOUISIANA WEATHER ROUNDUP
NATIONAL WEATHER SERVICE NEW ORLEANS LA
100 AM CDT SAT APR 19 2014

NOTE: "FAIR" INDICATES FEW OR NO CLOUDS BELOW 12,000 FEET WITH NO
      SIGNIFICANT WEATHER AND/OR OBSTRUCTIONS TO VISIBILITY.
      SKY/WX - SKY CONDITION AND SIGNIFICANT WEATHER.
      TMP - AIR TEMPERATURE.    DP   - DEWPOINT TEMPERATURE.
      RH  - RELATIVE HUMIDITY.  PRES - PRESSURE.
      HX  - HEAT INDEX.         WCI  - WIND CHILL INDEX.

*  THESE STATIONS ARE NOT NWS OR FAA STATIONS AND ARE NOT UNDER
   NWS QUALITY CONTROL.

LAZ040-048-061>063-065-066-069-190700-
SOUTHEAST LOUISIANA

CITY           SKY/WX    TMP DP  RH WIND       PRES   REMARKS
N.O. AUDUBON     N/A     62  56  82 MISG        N/A
6HR MIN TEMP:  61; 6HR MAX TEMP:  69;

N.O. INTL ARPT FAIR      61  54  77 NE14G22   30.14F
6HR MIN TEMP:  60; 6HR MAX TEMP:  68;

N.O. LAKEFRONT FAIR      61  55  81 NE18      30.15F
6HR MIN TEMP:  61; 6HR MAX TEMP:  66;

N.O. DOWNTOWN* FAIR      61  52  72 N6        30.14F
6HR MIN TEMP:  61; 6HR MAX TEMP:  68;

SLIDELL        FAIR      55  52  89 N5        30.15S
6HR MIN TEMP:  55; 6HR MAX TEMP:  65;

BATON ROUGE    FAIR      60  54  80 NE8       30.14F
6HR MIN TEMP:  58; 6HR MAX TEMP:  68;

BOOTHVILLE     CLOUDY    62  54  74 N12G23    30.11F
6HR MIN TEMP:  61; 6HR MAX TEMP:  63;

BELLE CHASSE   FAIR      60  54  80 NE5       30.13F
6HR MIN TEMP:  59; 6HR MAX TEMP:  67;

BOGALUSA*        N/A     55  51  88 NW5       30.19R
GALLIANO*      FAIR      60  56  87 N7        30.12F
6HR MIN TEMP:  60; 6HR MAX TEMP:  71;

NEW ROADS*     FAIR      60  57  91 E5        30.14S
6HR MIN TEMP:  59; 6HR MAX TEMP:  65; 6HR PCP:  0.04;

GONZALES*      FAIR      61  56  84 NE3       30.13F
6HR MIN TEMP:  58; 6HR MAX TEMP:  72;

HAMMOND*       FAIR      59  54  82 CALM      30.18F
HOUMA*           N/A     59  54  83 NE7       30.13F
6HR MIN TEMP:  58; 6HR MAX TEMP:  71;

PORT FOURCHON* CLEAR     63  57  82 N10       30.13F

$$

LAZ041-044-053-054-190700-
SOUTHWEST LOUISIANA

CITY           SKY/WX    TMP DP  RH WIND       PRES   REMARKS
LAKE CHARLES   FAIR      62  56  80 N5        30.13S
6HR MIN TEMP:  60; 6HR MAX TEMP:  73;

LAFAYETTE      FAIR      61  58  90 E3        30.13S
6HR MIN TEMP:  61; 6HR MAX TEMP:  72;

PATTERSON      FAIR      61  55  82 E5        30.16F
6HR MIN TEMP:  61; 6HR MAX TEMP:  73;

SALT POINT       N/A     64  59  83 CALM      30.12F
6HR MIN TEMP:  64; 6HR MAX TEMP:  74;

NEW IBERIA     FAIR      63  58  83 E7        30.14S
6HR MIN TEMP:  61; 6HR MAX TEMP:  73;

CHENAULT AIRPK FAIR      60  56  88 N3        30.14F
6HR MIN TEMP:  60; 6HR MAX TEMP:  72;


$$

LAZ027-028-190700-
CENTRAL LOUISIANA

CITY           SKY/WX    TMP DP  RH WIND       PRES   REMARKS
FORT POLK      FAIR      58  55  90 N3        30.14S
6HR MIN TEMP:  57; 6HR MAX TEMP:  69;

ALEXANDRIA INT FAIR      60  55  83 N3        30.13F
6HR MIN TEMP:  59; 6HR MAX TEMP:  70;

ALEXANDRIA     FAIR      58  55  90 CALM      30.14F
6HR MIN TEMP:  56; 6HR MAX TEMP:  71;


$$

LAZ001-002-190700-
NORTHWEST LOUISIANA

CITY           SKY/WX    TMP DP  RH WIND       PRES   REMARKS
SHREVEPORT     FAIR      57  52  83 CALM      30.16S
6HR MIN TEMP:  56; 6HR MAX TEMP:  70;

BARKSDALE AFB  FAIR      57  54  90 CALM      30.16S
6HR MIN TEMP:  57; 6HR MAX TEMP:  70;

DTN SHREVEPORT FAIR      55  53  93 CALM      30.17R
6HR MIN TEMP:  55; 6HR MAX TEMP:  70;


$$

LAZ014-016-190700-
NORTHEAST LOUISIANA

CITY           SKY/WX    TMP DP  RH WIND       PRES   REMARKS
MONROE         FAIR      54  52  93 E5        30.18S
6HR MIN TEMP:  54; 6HR MAX TEMP:  68;

TALLULAH       FAIR      59  56  89 E3        30.20R
6HR MIN TEMP:  59; 6HR MAX TEMP:  71;


$$




USA.gov is the U.S. government's official web portal to all federal, state and local government web resources and services.